Regional Weather Roundup
Issued by NWS

Home | Current Version | Previous Version | Graphics & Text | Print | Product List | Glossary On
Versions: 1 2 3 4 5 6 7 8 9 10 11 12 13 14 15 16 17 18 19 20 21 22 23 24 25 26 27 28 29 30 31 32 33 34 35 36 37 38 39 40 41 42 43 44 45 46 47 48 49 50
000
ASUS45 KCYS 292210
RWRWY

WYOMING REGIONAL WEATHER ROUNDUP
NATIONAL WEATHER SERVICE CHEYENNE WY
400 PM MDT FRI APR 29 2016

NOTE:  "FAIR" INDICATES FEW OR NO CLOUDS BELOW 12,000 FEET
WITH NO SIGNIFICANT WEATHER AND/OR OBSTRUCTIONS TO VISIBILITY.

WYZ001-292300-
YELLOWSTONE NATIONAL PARK

CITY           SKY/WX    TMP DP  RH WIND       PRES   REMARKS
LK YELLOWSTONE   N/A     42  23  46 VRB5      29.88S
W YELLOWSTONE  NOT AVBL

$$
WYZ002>013-054>058-071-098>099-292300-
NORTHERN WYOMING

CITY           SKY/WX    TMP DP  RH WIND       PRES   REMARKS
JACKSON        MOSUNNY   50  27  40 S12G17    29.82F
CODY           CLOUDY    45  30  57 NE3       29.93R
GREYBULL       CLOUDY    52  26  36 VRB3      29.91F
WORLAND        CLOUDY    48  29  47 CALM      29.92F
SHERIDAN       CLOUDY    47  32  56 SE9       29.98S
BUFFALO          N/A    N/A N/A N/A MISG      29.98F
GILLETTE       CLOUDY    44  35  70 NE15      29.97F
HULETT         CLOUDY    43  36  75 E16       30.03F
NEWCASTLE      MOCLDY    43  34  70 S3        29.99F

$$
WYZ014>020-022>026-101>103-292300-
CENTRAL WYOMING

CITY           SKY/WX    TMP DP  RH WIND       PRES   REMARKS
BIG PINEY      CLOUDY    44  24  45 VRB6      29.87F
PINEDALE       CLOUDY    41  27  56 S9        29.87F
DUBOIS         CLOUDY    39  28  65 SE9       29.89S WCI  33
LANDER         CLOUDY    39  33  79 NE5       29.91F
RIVERTON       LGT RAIN  38  33  82 N3        29.94S
CASPER         CLOUDY    39  30  70 E15       29.93S WCI  31
DOUGLAS        LGT RAIN  40  34  79 E10       29.96F WCI  33

$$
WYZ021-027>030-104>119-292300-
SOUTHERN WYOMING

CITY           SKY/WX    TMP DP  RH WIND       PRES   REMARKS
EVANSTON       CLOUDY    42  27  55 NW3       29.88F
KEMMERER       CLOUDY    37  28  70 CALM      29.89F
FORT BRIDGER   CLOUDY    39  34  81 CALM      29.91F
ROCK SPRINGS   CLOUDY    40  29  64 NE7       29.88F
DIXON          CLOUDY    46  32  59 N10       29.85S
RAWLINS        CLOUDY    35  31  85 NE16      29.88S FOG     WCI  25
SARATOGA       DRIZZLE   37  36  93 N8        29.84F WCI  31
LARAMIE        LGT SNOW  32  28  85 E14       29.88S VSB 1   WCI  22
CHEYENNE       SNOW      32  31  96 E6        29.93F VSB 1/2 WCI  26
TORRINGTON     LGT RAIN  41  35  79 E15       29.94F
PINE BLUFFS    LGT SNOW  32  32 100 NW5       29.94F VSB 3/4 WCI  27

$$



USA.gov is the U.S. government's official web portal to all federal, state and local government web resources and services.